Voltar ao catálogo

KUIPER-00126

AtivoComunicaçõesLEO
NORAD 65955·PAYLOAD·🇺🇸 United States

Lançado Oct 14, 2025 de Cape Canaveral Space Force Station

Loading…

Próximas Passagens (próximas 24 horas)

TLE

AtualizadoSource: CelesTrak SupGP

Época: Sep 14, 2026, 13:00 UTC

1 65955C 25228J   26257.54230324  .00003461  00000+0  45305-3 0  2574
2 65955  51.8975 245.4787 0000643  68.5445 290.3045 14.79925766    19

Acompanhe KUIPER-00126 em tempo real com AllMySat

Download on the App Store